Location: El Carrer d�Abaix
(41.5797°N, 2.1791°E)
Time: 21:44:16
(UTC+00:00)

STARLINK-1378 - Visible Passes

Search period start: 01 October 2020 00:00
Search period end: 11 October 2020 00:00
Orbit: 549 x 550 km, 53.0° (Epoch: 01 October)

Date Brightness Start Highest point End Pass type
(mag) Time Alt. Az. Time Alt. Az. Time Alt. Az.
01 Oct 4.9 03:21:05 39° NE 03:21:05 39° NE 03:23:48 10° NE visible
01 Oct 5.2 04:56:45 12° WNW 04:59:41 24° NNW 05:03:04 10° NE visible
02 Oct 5.3 03:16:00 31° NE 03:16:00 31° NE 03:18:17 10° NE visible
02 Oct 5.4 04:51:39 12° WNW 04:54:21 21° NNW 04:57:33 10° NE visible
03 Oct 5.7 03:10:50 25° NNE 03:10:50 25° NNE 03:12:45 10° NE visible
03 Oct 5.5 04:46:30 12° NW 04:49:01 19° NNW 04:52:03 10° NE visible
04 Oct 6.0 03:05:38 20° NNE 03:05:38 20° NNE 03:07:10 10° NE visible
04 Oct 5.6 04:41:17 12° NW 04:43:42 18° N 04:46:35 10° NE visible
05 Oct 6.2 03:00:23 17° NNE 03:00:23 17° NNE 03:01:36 10° NE visible
05 Oct 5.7 04:36:02 12° NW 04:38:22 17° N 04:41:08 10° NE visible
06 Oct 6.4 02:55:07 15° NNE 02:55:07 15° NNE 02:55:59 10° NE visible
06 Oct 5.8 04:30:46 12° NW 04:33:01 17° N 04:35:44 10° NE visible
07 Oct 6.6 02:49:50 13° NNE 02:49:50 13° NNE 02:50:22 10° NE visible
07 Oct 5.9 04:25:29 12° NNW 04:27:40 17° N 04:30:23 10° NE visible
08 Oct 6.8 02:44:32 11° NNE 02:44:32 11° NNE 02:44:46 10° NE visible
08 Oct 5.9 04:20:11 13° NNW 04:22:17 17° N 04:25:05 10° NE visible
09 Oct 5.8 04:14:54 14° NNW 04:16:53 18° N 04:19:47 10° NE visible
10 Oct 5.8 04:09:37 15° NNW 04:11:28 19° NNE 04:14:31 10° ENE visible
